This is the latest recevied weather packets stored in our database for station/object DB0MOD. If no packets are shown the sender has not sent any weather packets the latest 10 day(s).
| Time | Temp. | Humidity | Pressure | Rain* | Wind** | Luminosity | Snow |
|---|---|---|---|---|---|---|---|
| 1777868949 | 8.89° C | 10% | 1014.7 hPa | 0 mm | - | - | - |
| 1777868648 | 8.89° C | 10% | 1014.6 hPa | 0 mm | - | - | - |
| 1777868348 | 8.89° C | 10% | 1014.6 hPa | 0 mm | - | - | - |
| 1777868048 | 8.89° C | 10% | 1014.6 hPa | 0 mm | - | - | - |
| 1777867748 | 8.89° C | 10% | 1014.5 hPa | 0 mm | - | - | - |
| 1777867448 | 8.89° C | 10% | 1014.7 hPa | 0 mm | - | - | - |
| 1777867148 | 8.89° C | 10% | 1014.7 hPa | 0 mm | - | - | - |
| 1777866848 | 8.89° C | 10% | 1014.6 hPa | 0 mm | - | - | - |
| 1777866548 | 8.89° C | 10% | 1014.8 hPa | 0 mm | - | - | - |
| 1777866248 | 9.44° C | 11% | 1014.8 hPa | 0 mm | - | - | - |
| 1777865948 | 9.44° C | 11% | 1014.9 hPa | 0 mm | - | - | - |
| 1777865648 | 9.44° C | 12% | 1014.8 hPa | 0 mm | - | - | - |
| 1777865348 | 9.44° C | 12% | 1014.9 hPa | 0 mm | - | - | - |
| 1777865048 | 9.44° C | 15% | 1015 hPa | 0 mm | - | - | - |
| 1777864748 | 9.44° C | 19% | 1015.1 hPa | 0 mm | - | - | - |
| 1777864448 | 10° C | 18% | 1015 hPa | 0 mm | - | - | - |
| 1777864148 | 10° C | 21% | 1015.2 hPa | 0 mm | - | - | - |
| 1777863848 | 10° C | 23% | 1015.1 hPa | 0 mm | - | - | - |
| 1777863548 | 10.56° C | 26% | 1014.9 hPa | 0 mm | - | - | - |
| 1777863248 | 10.56° C | 27% | 1014.9 hPa | 0 mm | - | - | - |
| 1777862948 | 10.56° C | 27% | 1014.9 hPa | 0 mm | - | - | - |
| 1777862648 | 10.56° C | 27% | 1015 hPa | 0 mm | - | - | - |
| 1777862348 | 11.11° C | 27% | 1015 hPa | 0 mm | - | - | - |
| 1777862048 | 11.11° C | 27% | 1015 hPa | 0 mm | - | - | - |
| 1777861748 | 11.11° C | 27% | 1015 hPa | 0 mm | - | - | - |
* Rain latest hour (hover to see other rain measurements)
** Current wind speed in m/s (hover to see current wind gust speed)